Simultaneous Nadir Overpasses (SNOs) Predictions

Prediction of SNOs between GOES-17 and METOP-C Satellite Orbit:

Table of predicted SNOs for the next 14.0 days since TLE Epoch: 9/10/2022
Index Date Time (GOES-17) GOES-17 Lat,Lon METOP-C Lat,Lon Distance(km) Time Diff (sec)
1 09/10/2022 18:50:11 -0.06,-137.31 0.60,-140.22 331.94 80
2 09/11/2022 18:32:11 -0.05,-137.32 -0.50,-135.22 237.81 80
3 09/13/2022 06:48:31 0.06,-137.32 -0.49,-139.83 285.91 80
4 09/14/2022 06:30:31 0.05,-137.32 0.60,-134.83 283.46 80
5 09/15/2022 18:46:41 -0.05,-137.32 0.38,-139.39 236.14 80
6 09/16/2022 18:28:41 -0.05,-137.31 -0.72,-134.39 332.90 80
7 09/18/2022 06:45:00 0.05,-137.30 -0.34,-138.99 192.04 80
8 09/19/2022 06:26:59 0.05,-137.30 0.76,-133.99 376.46 80
9 09/20/2022 18:43:10 -0.05,-137.28 0.21,-138.55 144.36 80
10 09/21/2022 18:25:09 -0.04,-137.27 -0.89,-133.56 423.93 80
11 09/23/2022 06:44:09 0.04,-137.25 -0.16,-138.15 101.87 80
